STARLINK-31849, 59734

Orbit data source: Space-Track

STARLINK-31849, 59734 is a payload satellite owned by SpaceX/Seattle (US) in LEO that was launched on Mon, 13 May 2024 UTC via an FALCON 9 launch vehicle from the Air Force Eastern Test Range (AFETR). Payload-class satellites include a variety of spacecraft equipped with specific instruments for various scientific and technological missions. These include communications satellites like Starlink; space stations such as the ISS; scientific satellites like the Hubble; Earth observation satellites from companies like Planet Labs, Umbra, and HawkEye 360; GPS; miniature CubeSats for education and research; and military/defense satellites.

Loading next visibility...
Identifier
59734, 2024-090E
Orbit
LEO
Country
Flag of USUS
Related business
Manufacturer
SpaceX/Seattle
Mission
Operational Commercial Communications
Bus & Motor
STARLINK V2M, Unknown motor
Mass
730 kg wet, ~700 kg dry
Launch date (UTC)
2024-05-13 (2 years ago)
Launch vehicle
FALCON 9
Launch site
Air Force Eastern Test Range (AFETR)
Object type
Payload
Rocket body
Debris
Shape & HBR
Box + 2 Pan, 17.7 m
Radar Cross Section
33.884 m², Large (>1 m²)

Expand to show TLE details & history
Last TLE update: 2 days ago

TLE from 2 days ago
0 STARLINK-31849
1 59734U 24090E   26171.43673082 -.00000210  00000-0  19074-5 0  9993
2 59734  43.0028 316.3434 0001325 273.5107  86.5593 15.27577028119233
Epoch: 2026-06-20T10:28Z
TLE epoch observation values (Epoch: 2026-06-20T10:28:53.542Z)
Latitude
-0.00004°
Longitude
-109.53111°
Altitude
482.779 km
Speed
7.626 km/s
True Right ascension
21h 05m 22s
True Declination
0° 00' 00"
Sunlit
Object was in full shadow at epoch
Visualization orbit readout
Latitude
Unknown
Longitude
Unknown
Altitude
Unknown
Speed
Unknown
Apparent Right ascension
Unknown
Apparent Declination
Unknown
Sunlit
N/A
Visualization observer readout
Local Sidereal Time
21:32:59
Azimuth
Unknown
Elevation
Unknown
Doppler factor
Unknown
Orbital elements
Apogee altitude
485.912 km
Perigee altitude
484.093 km
Semi-major axis
6,863.14 km
Eccentricity
0.00013
Inclination
43.0028°
RAAN
316.3434°
Arg. of periapsis
273.5107°
True anomaly
86.57446°
Mean anomaly
86.5593°
Eccentric anomaly
86.56688°
Mean motion
3.81732 °/min
Orbital period
94.31 mins
BSTAR
0.0000019074
Loading maneuver chart data...
Computing Atmospheric mass density...
Loading historical data...
Loading historical data...
Loading historical data...
Loading historical data...
Loading historical data...
Loading historical data...
Loading historical data...

Documentation

Showing up to 5 results
|